Location: Newark
(44.5208°N, 2.4294°E)
Time: 09:52:51
(UTC+00:00)

N. Korean satellite - Pass Details

Date: 23 October 2019
Orbit: 456 x 506 km, 97.2° (Epoch: 18 November)

Event Time Altitude Azimuth Distance (km) Brightness Sun altitude
Rises 05:05:00 0° 24° (NNE) 2,570 10.5 -13.2°
Reaches altitude 10° 05:07:20 10° 38° (NE) 1,692 9.8 -12.8°
Maximum altitude 05:10:23 25° 95° (E) 1,037 9.2 -12.2°
Drops below altitude 10° 05:13:28 10° 152° (SSE) 1,700 9.8 -11.7°
Sets 05:15:48 0° 166° (SSE) 2,584 10.5 -11.2°
